Pineville, WV

4:47 PM EDT on June 26, 2017 (GMT -0400)
Pineville

Weather History for KI16 - December, 2012

Change the Weather History Date:

Monday, December 31, 2012

  Actual Average (KBKW) Record (KBKW)
Temperature  
Mean Temperature 26 °F -  
Max Temperature 37 °F 42 °F 71 °F (1972)
Min Temperature 16 °F 26 °F -14 °F (1899)
Degree Days  
Heating Degree Days 38    
Moisture  
Dew Point 25 °F    
Average Humidity 92    
Maximum Humidity 99    
Minimum Humidity 70    
Precipitation  
Precipitation 0.00 in - - ()
Sea Level Pressure  
Sea Level Pressure 30.27 in    
Wind  
Wind Speed - (North)    
Max Wind Speed -    
Max Gust Speed -    
Visibility 10 miles    
Events      
Averages and records for this station are not official NWS values.
T = Trace of Precipitation, MM = Missing Value Source: NWS Daily Summary

Daily Weather History Graph

Daily Weather History Graph

Search for Another Location

Airport or City:

Trip Planner

Search our weather history database for the weather conditions in past years. The results will help you decide how hot, cold, wet, or windy it might be!

Date:

Astronomy

Dec. 31, 2012 Rise Set
Actual Time 7:41 AM EST 5:18 PM EST
Civil Twilight 7:11 AM EST 5:47 PM EST
Nautical Twilight 6:39 AM EST 6:20 PM EST
Astronomical Twilight 6:07 AM EST 6:51 PM EST
Moon 8:43 PM EST (12/31) 9:25 AM EST (12/31)
Length of Visible Light 10h 35m
Length of Day
9h 37m
Waning Gibbous, 90% of the Moon is Illuminated
Dec 31
Waning Gibbous
Jan 4
Last Quarter
Jan 11
New
Jan 18
First Quarter
Jan 26
Full

Hourly Weather History & Observations

Time (EST) Temp. Dew Point Humidity Pressure Visibility Wind Dir Wind Speed Gust Speed Precip Events Conditions
12:15 AM 19.2 °F 18.9 °F 98% 30.39 in 10.0 mi North - - N/A   Clear
12:35 AM 18.5 °F 18.1 °F 98% 30.40 in 10.0 mi North - - N/A   Clear
12:55 AM 18.5 °F 18.3 °F 99% 30.40 in 10.0 mi North - - N/A   Clear
1:15 AM 18.5 °F 18.1 °F 98% 30.39 in 10.0 mi North - - N/A   Clear
1:35 AM 18.5 °F 18.1 °F 98% 30.38 in 10.0 mi North - - N/A   Clear
1:55 AM 18.7 °F 18.3 °F 98% 30.39 in 10.0 mi North - - N/A   Clear
2:15 AM 18.3 °F 18.0 °F 98% 30.38 in 10.0 mi North - - N/A   Clear
2:35 AM 18.3 °F 17.8 °F 98% 30.38 in 10.0 mi North - - N/A   Clear
2:55 AM 18.0 °F 17.4 °F 98% 30.37 in 10.0 mi North - - N/A   Clear
3:15 AM 17.6 °F 17.2 °F 98% 30.37 in 10.0 mi North - - N/A   Clear
3:35 AM 17.6 °F 17.1 °F 98% 30.37 in 10.0 mi North - - N/A   Clear
3:55 AM 17.6 °F 17.2 °F 98% 30.35 in 10.0 mi North - - N/A   Clear
4:15 AM 18.0 °F 17.4 °F 98% 30.34 in 10.0 mi North - - N/A   Clear
4:35 AM 17.6 °F 17.2 °F 98% 30.33 in 10.0 mi North - - N/A   Clear
4:55 AM 17.4 °F 16.7 °F 97% 30.33 in 10.0 mi North - - N/A   Clear
5:15 AM 16.9 °F 16.3 °F 98% 30.34 in 10.0 mi North - - N/A   Clear
5:35 AM 16.5 °F 15.8 °F 97% 30.33 in 10.0 mi North - - N/A   Clear
5:55 AM 16.0 °F 15.4 °F 98% 30.33 in 10.0 mi North - - N/A   Clear
6:15 AM 17.6 °F 17.1 °F 98% 30.33 in 10.0 mi North - - N/A   Clear
6:35 AM 18.5 °F 18.0 °F 98% 30.34 in 10.0 mi North - - N/A   Clear
6:55 AM 18.3 °F 17.6 °F 97% 30.33 in 10.0 mi North - - N/A   Clear
7:15 AM 18.9 °F 18.3 °F 98% 30.33 in 10.0 mi North - - N/A   Clear
7:35 AM 18.5 °F 18.0 °F 98% 30.33 in 10.0 mi North - - N/A   Clear
7:55 AM 18.7 °F 18.1 °F 98% 30.33 in 10.0 mi North - - N/A   Clear
8:15 AM 20.1 °F 19.4 °F 97% 30.33 in 10.0 mi North - - N/A   Clear
8:35 AM 21.2 °F 20.7 °F 98% 30.34 in 10.0 mi North - - N/A   Clear
8:55 AM 22.8 °F 22.1 °F 97% 30.33 in 10.0 mi North - - N/A   Clear
9:15 AM 23.9 °F 23.0 °F 96% 30.33 in 10.0 mi North - - N/A   Clear
9:35 AM 24.4 °F 23.7 °F 97% 30.32 in 10.0 mi North - - N/A   Scattered Clouds
9:55 AM 25.3 °F 24.6 °F 97% 30.32 in 10.0 mi North - - N/A   Scattered Clouds
10:15 AM 26.6 °F 25.9 °F 97% 30.33 in 10.0 mi North - - N/A   Mostly Cloudy
10:35 AM 27.7 °F 27.0 °F 97% 30.33 in 10.0 mi North - - N/A   Overcast
10:55 AM 28.6 °F 27.7 °F 96% 30.32 in 10.0 mi North - - N/A   Overcast
11:15 AM 29.7 °F 28.9 °F 97% 30.32 in 10.0 mi North - - N/A   Overcast
11:35 AM 31.6 °F 29.8 °F 93% 30.31 in 10.0 mi North - - N/A   Overcast
12:15 PM 34.5 °F 27.3 °F 75% 30.26 in 10.0 mi North - - N/A   Mostly Cloudy
12:35 PM 34.5 °F 29.3 °F 81% 30.26 in 10.0 mi North - - N/A   Mostly Cloudy
12:55 PM 35.2 °F 28.9 °F 78% 30.24 in 10.0 mi North - - N/A   Scattered Clouds
1:15 PM 35.8 °F 28.2 °F 74% 30.24 in 10.0 mi North - - N/A   Scattered Clouds
1:35 PM 36.0 °F 27.0 °F 70% 30.22 in 10.0 mi North - - N/A   Mostly Cloudy
1:55 PM 36.5 °F 28.6 °F 73% 30.23 in 10.0 mi North - - N/A   Overcast
2:15 PM 36.9 °F 27.9 °F 70% 30.22 in 10.0 mi North - - N/A   Overcast
2:35 PM 37.0 °F 28.0 °F 70% 30.21 in 10.0 mi North - - N/A   Overcast
2:55 PM 36.7 °F 29.1 °F 74% 30.21 in 10.0 mi North - - N/A   Overcast
3:15 PM 37.0 °F 28.4 °F 71% 30.20 in 10.0 mi North - - N/A   Overcast
3:35 PM 36.7 °F 31.6 °F 82% 30.20 in 10.0 mi North - - N/A   Overcast
3:55 PM 36.0 °F 32.2 °F 86% 30.20 in 10.0 mi North - - N/A   Overcast
4:15 PM 35.6 °F 32.0 °F 87% 30.17 in 10.0 mi North - - N/A   Overcast
4:35 PM 35.1 °F 32.0 °F 89% 30.17 in 10.0 mi North - - N/A   Overcast
4:55 PM 35.6 °F 31.6 °F 85% 30.20 in 10.0 mi North - - N/A   Overcast
5:15 PM 34.9 °F 32.0 °F 89% 30.20 in 10.0 mi North - - N/A   Overcast
5:35 PM 34.5 °F 32.0 °F 90% 30.20 in 10.0 mi North - - N/A   Overcast
5:55 PM 34.2 °F 32.2 °F 92% 30.20 in 10.0 mi North - - N/A   Overcast
6:15 PM 34.0 °F 32.0 °F 92% 30.19 in 10.0 mi North - - N/A   Overcast
6:35 PM 33.8 °F 32.0 °F 93% 30.18 in 10.0 mi North - - N/A   Overcast
7:15 PM 34.3 °F 32.4 °F 92% 30.17 in 10.0 mi North - - N/A   Overcast
7:35 PM 34.0 °F 32.0 °F 92% 30.16 in 10.0 mi North - - N/A   Overcast
7:55 PM 34.2 °F 32.2 °F 92% 30.16 in 10.0 mi North - - N/A   Overcast
8:15 PM 33.8 °F 32.0 °F 93% 30.16 in 10.0 mi North - - N/A   Overcast
8:35 PM 34.0 °F 32.5 °F 94% 30.16 in 10.0 mi North - - N/A   Overcast
8:55 PM 34.2 °F 32.4 °F 93% 30.15 in 10.0 mi North - - N/A   Overcast
9:15 PM 34.2 °F 32.9 °F 95% 30.16 in 10.0 mi North - - N/A   Overcast
9:35 PM 34.2 °F 32.4 °F 93% 30.14 in 10.0 mi North - - N/A   Overcast
9:55 PM 34.2 °F 32.7 °F 94% 30.13 in 10.0 mi North - - N/A   Overcast
10:15 PM 34.0 °F 32.9 °F 96% 30.14 in 10.0 mi North - - N/A   Overcast
10:35 PM 34.2 °F 32.9 °F 95% 30.14 in 10.0 mi North - - N/A   Overcast
10:55 PM 34.2 °F 32.9 °F 95% 30.14 in 10.0 mi North - - N/A   Overcast
11:15 PM 34.2 °F 32.9 °F 95% 30.13 in 10.0 mi North - - N/A   Overcast
11:35 PM 34.2 °F 33.1 °F 96% 30.14 in 10.0 mi North - - N/A   Overcast